Location: Moscow
(55.7500°N, 37.5830°E)
Time: 09:01:01
(UTC+03:00)

Vanguard 1 Rocket - Pass Details

Date: 09 December 2021
Orbit: 651 x 4224 km, 34.3° (Epoch: 23 January)

Event Time Altitude Azimuth Distance (km) Brightness Sun altitude
Exits shadow 03:31:45 28° 169° (SSE) 3,654 10.2 -42.2°
Maximum altitude 03:32:03 28° 167° (SSE) 3,685 10.3 -42.1°
Drops below altitude 10° 03:46:06 10° 118° (ESE) 6,392 12.0 -40.3°
Sets 03:53:06 0° 110° (ESE) 7,917 12.8 -39.4°
